Home   Weather   Haql   Past weeks

Flag for Saudi Arabia Past Weather in Haql, Saudi Arabia — Yesterday and Last 2 Weeks

Now
66 °F

Sunny.


Feels Like: 66 °F
Forecast: 57 / 69 °F
Wind: 20 mph from Northeast

Location: Eilat

Current Time: Jan 17, 2017 at 12:20:35 pm

Latest Report: Jan 17, 2017 at 11:50 am


Visibility: 10 mi

Pressure: 30.01 "Hg

Humidity: 43%

Dew Point: 43 °F

Location of HaqlLocation

Past Weather in Haql — Graph

°F

Haql Temperature Yesterday

Maximum temperature yesterday: 72 °F (at 3:50 pm)
Minimum temperature yesterday: 52 °F (at 6:50 am)
Average temperature yesterday: 62 °F

High & Low Weather Summary for the Past Weeks

 TemperatureHumidityPressure
High73 °F (Jan 6, 3:50 pm)77% (Jan 16, 6:30 am)30.27 "Hg (Jan 16, 6:30 am)
Low43 °F (Jan 11, 6:50 am)18% (Jan 5, 4:50 pm)29.83 "Hg (Jan 14, 3:50 pm)
Average60 °F41%30.08 "Hg
* Reported Jan 2 10:50 am — Jan 17 10:50 am, Haql, Weather by CustomWeather, © 2017

Note: Actual official high and low records may vary slightly from our data, if they occured in-between our weather recording intervals... More about our weather records

Advertising

Haql Weather History for the Previous 24 Hours

Scroll right to see more
 ConditionsComfort  
Time TempWeatherWind HumidityBarometerVisibility
10:50 am
Tue, Jan 17
63 °FSunny.21 mph49%30.04 "Hg10 mi
9:50 am59 °FSunny.18 mph55%30.04 "Hg10 mi
8:50 am59 °FSunny.15 mph55%30.04 "Hg10 mi
7:50 am55 °FSunny.13 mph63%30.01 "Hg10 mi
6:50 am55 °FClear.15 mph63%30.01 "Hg10 mi
6:30 am55 °FClear.14 mph63%30.01 "Hg10 mi
10:50 pm
Mon, Jan 16
59 °FClear.17 mph51%30.04 "Hg10 mi
9:50 pm59 °FClear.18 mph51%30.04 "Hg10 mi
8:50 pm61 °FClear.20 mph48%30.04 "Hg10 mi
7:50 pm63 °FClear.20 mph45%30.04 "Hg10 mi
6:50 pm64 °FClear.17 mph43%30.01 "Hg10 mi
5:50 pm66 °FSunny.16 mph40%30.01 "Hg10 mi
4:50 pm70 °FSunny.18 mph35%30.01 "Hg10 mi
3:50 pm72 °FSunny.18 mph33%30.01 "Hg10 mi
2:50 pm70 °FSunny.16 mph38%30.01 "Hg10 mi
1:50 pm70 °FSunny.18 mph38%30.01 "Hg10 mi
12:50 pm66 °FSunny.20 mph43%30.07 "Hg10 mi
Weather by CustomWeather, © 2017

See weather overviewHow to use our weather pages